FENGYUN 1C DEB, 32088

Orbit data source: Space-Track

FENGYUN 1C DEB, 32088 is space debris in SSO originally from a launch on Mon, 10 May 1999 UTC launched from the Taiyaun Space Center, China (TSC). Fengyun 1C debris stems from the Chinese weather satellite Fengyun-1C, which was intentionally destroyed by a Chinese anti-satellite missile in 2007. This event dramatically increased the amount of space debris, with thousands of trackable fragments posing hazards to satellites and human spaceflight. The Fengyun 1C debris cloud has become a focal point in discussions about space sustainability and the need for international regulations to prevent the creation of new debris.

Loading next visibility...
Identifier
32088, 1999-025CQE
Orbit
SSO
Country
Flag of CNCN / PRC
Related business
Manufacturer
Unknown
Mission
Spacecraft
Bus & Motor
Unknown
Mass
Unknown
Launch date (UTC)
1999-05-10 (27 years ago)
Launch vehicle
Unknown
Launch site
Taiyaun Space Center, China (TSC)
Object type
Payload
Rocket body
Debris
Shape & HBR
Unknown shape, 0.1 m
Radar Cross Section
Small (<0.1 m²)

Expand to show TLE details & history
Last TLE update: 2 months ago

TLE from 2 months ago
0 FENGYUN 1C DEB
1 32088U 99025CQE 26026.87112242  .00001055  00000-0  14528-2 0  9992
2 32088 102.4080 266.6230 0459572 260.7241  94.1635 13.25355927604423
Epoch: 2026-01-26T20:54Z
TLE epoch observation values (Epoch: 2026-01-26T20:54:24.977Z)
Latitude
0.00001°
Longitude
-173.14173°
Altitude
1,207.902 km
Speed
7.231 km/s
True Right ascension
17h 46m 29s
True Declination
0° 00' 00"
Sunlit
Object was in daylight at epoch
Visualization orbit readout
Latitude
Unknown
Longitude
Unknown
Altitude
Unknown
Speed
Unknown
Apparent Right ascension
Unknown
Apparent Declination
Unknown
Sunlit
N/A
Visualization observer readout
Local Sidereal Time
14:40:41
Azimuth
Unknown
Elevation
Unknown
Doppler factor
Unknown
Orbital elements
Apogee altitude
1,508.328 km
Perigee altitude
815.298 km
Semi-major axis
7,539.95 km
Eccentricity
0.04596
Inclination
102.408°
RAAN
266.623°
Arg. of periapsis
260.7241°
True anomaly
99.38685°
Mean anomaly
94.1635°
Eccentric anomaly
96.77825°
Mean motion
3.31505 °/min
Orbital period
108.6 mins
BSTAR
0.0014528
Loading maneuver chart data...
Computing Atmospheric mass density...

Documentation

Showing up to 5 results
|